When you browse on this site, cookies collect data to enhance your experience and personalize the content and advertising you see.
Visit our Privacy Policy to learn more. By continuing to use the site, you agree to this use of cookies and data.

Hourly Weather Gnilica

Today, 12 July, Sunday

Time Temperature Precipitation Wind Pressure Humidity
00:00 +14°C° 0.1 mm 2 mps 752 mmHg 88%
01:00 +13°C° 0.1 mm 2 mps 752 mmHg 89%
02:00 +13°C° 0 mm 1 mps 753 mmHg 93%
03:00 +13°C° 0.9 mm 1 mps 753 mmHg 94%
04:00 +13°C° 0.9 mm 1 mps 753 mmHg 95%
05:00 +12°C° 0.9 mm 1 mps 752 mmHg 95%
06:00 +13°C° 0.1 mm 2 mps 752 mmHg 93%
07:00 +13°C° 0.1 mm 2 mps 753 mmHg 91%
08:00 +13°C° 0 mm 3 mps 753 mmHg 89%
09:00 +14°C° 0.1 mm 3 mps 753 mmHg 83%
10:00 +14°C° 0.1 mm 3 mps 753 mmHg 78%
11:00 +16°C° 0.1 mm 3 mps 753 mmHg 73%
12:00 +16°C° 0.1 mm 3 mps 753 mmHg 70%
13:00 +17°C° 0.1 mm 3 mps 753 mmHg 68%
14:00 +18°C° 0.1 mm 3 mps 753 mmHg 65%
15:00 +18°C° 0.1 mm 3 mps 753 mmHg 66%
16:00 +18°C° 0.1 mm 3 mps 752 mmHg 67%
17:00 +18°C° 0.1 mm 3 mps 752 mmHg 68%
18:00 +17°C° 0.1 mm 3 mps 752 mmHg 74%
19:00 +16°C° 0.1 mm 3 mps 752 mmHg 80%
20:00 +15°C° 0.1 mm 2 mps 752 mmHg 85%
21:00 +14°C° 0 mm 2 mps 752 mmHg 88%
22:00 +12°C° 0 mm 3 mps 752 mmHg 90%
23:00 +10°C° 0 mm 3 mps 752 mmHg 93%

Tomorrow, 13 July, Monday

Time Temperature Precipitation Wind Pressure Humidity
00:00 +10°C° 0 mm 3 mps 752 mmHg 94%
01:00 +9°C° 0 mm 3 mps 753 mmHg 95%
02:00 +9°C° 0 mm 3 mps 753 mmHg 95%
03:00 +8°C° 0 mm 3 mps 753 mmHg 96%
04:00 +8°C° 0 mm 3 mps 752 mmHg 96%
05:00 +8°C° 0 mm 2 mps 752 mmHg 97%
06:00 +9°C° 0 mm 3 mps 752 mmHg 92%
07:00 +11°C° 0 mm 3 mps 752 mmHg 87%
08:00 +13°C° 0 mm 3 mps 752 mmHg 82%
09:00 +14°C° 0 mm 4 mps 752 mmHg 76%
10:00 +17°C° 0 mm 4 mps 751 mmHg 70%
11:00 +18°C° 0 mm 4 mps 751 mmHg 64%
12:00 +18°C° 0.1 mm 4 mps 751 mmHg 63%
13:00 +19°C° 0.1 mm 3 mps 751 mmHg 61%
14:00 +19°C° 0.1 mm 3 mps 751 mmHg 60%
15:00 +20°C° 0.1 mm 3 mps 750 mmHg 61%
16:00 +20°C° 0.1 mm 3 mps 750 mmHg 61%
17:00 +20°C° 0.1 mm 3 mps 750 mmHg 62%
18:00 +18°C° 0 mm 3 mps 750 mmHg 69%
19:00 +17°C° 0 mm 2 mps 750 mmHg 75%
20:00 +16°C° 0 mm 2 mps 749 mmHg 82%
21:00 +15°C° 0 mm 2 mps 750 mmHg 85%
22:00 +13°C° 0 mm 2 mps 750 mmHg 89%
23:00 +12°C° 0 mm 2 mps 750 mmHg 92%

Day after tomorrow, 14 July, Tuesday

Time Temperature Precipitation Wind Pressure Humidity
00:00 +12°C° 0 mm 2 mps 750 mmHg 94%
01:00 +12°C° 0 mm 2 mps 750 mmHg 95%
02:00 +10°C° 0 mm 2 mps 750 mmHg 97%
03:00 +10°C° 0 mm 2 mps 750 mmHg 97%
04:00 +10°C° 0 mm 2 mps 750 mmHg 97%
05:00 +10°C° 0 mm 2 mps 749 mmHg 98%
06:00 +12°C° 0 mm 2 mps 750 mmHg 93%
07:00 +14°C° 0 mm 2 mps 750 mmHg 89%
08:00 +16°C° 0 mm 2 mps 750 mmHg 85%
09:00 +17°C° 0.1 mm 3 mps 750 mmHg 80%
10:00 +18°C° 0.1 mm 3 mps 749 mmHg 75%
11:00 +19°C° 0.1 mm 3 mps 749 mmHg 70%
12:00 +20°C° 0.2 mm 3 mps 749 mmHg 69%
13:00 +20°C° 0.2 mm 3 mps 749 mmHg 67%
14:00 +21°C° 0.2 mm 3 mps 749 mmHg 66%
15:00 +21°C° 0.3 mm 3 mps 748 mmHg 68%
16:00 +20°C° 0.3 mm 3 mps 748 mmHg 70%
17:00 +20°C° 0.3 mm 3 mps 748 mmHg 72%
18:00 +19°C° 0.2 mm 2 mps 748 mmHg 77%
19:00 +18°C° 0.2 mm 2 mps 748 mmHg 81%
20:00 +17°C° 0.2 mm 2 mps 748 mmHg 86%
21:00 +16°C° 0 mm 2 mps 748 mmHg 88%
22:00 +15°C° 0 mm 2 mps 748 mmHg 90%
23:00 +14°C° 0 mm 2 mps 748 mmHg 92%

15 July, Wednesday

Time Temperature Precipitation Wind Pressure Humidity
00:00 +13°C° 0 mm 2 mps 748 mmHg 93%
01:00 +13°C° 0 mm 2 mps 748 mmHg 93%
02:00 +12°C° 0 mm 2 mps 748 mmHg 94%
03:00 +12°C° 0 mm 2 mps 748 mmHg 94%
04:00 +12°C° 0 mm 2 mps 748 mmHg 94%
05:00 +12°C° 0 mm 1 mps 748 mmHg 95%
06:00 +14°C° 0 mm 1 mps 748 mmHg 91%
07:00 +15°C° 0 mm 2 mps 748 mmHg 87%
08:00 +17°C° 0 mm 2 mps 748 mmHg 83%
09:00 +18°C° 0.1 mm 2 mps 748 mmHg 77%
10:00 +20°C° 0.1 mm 2 mps 748 mmHg 71%
11:00 +21°C° 0.1 mm 2 mps 748 mmHg 66%
12:00 +21°C° 0.2 mm 2 mps 748 mmHg 63%
13:00 +23°C° 0.2 mm 2 mps 747 mmHg 60%
14:00 +24°C° 0.2 mm 2 mps 747 mmHg 57%
15:00 +23°C° 0.2 mm 2 mps 747 mmHg 60%
16:00 +23°C° 0.2 mm 2 mps 747 mmHg 62%
17:00 +23°C° 0.2 mm 1 mps 747 mmHg 65%
18:00 +22°C° 0.1 mm 1 mps 747 mmHg 70%
19:00 +20°C° 0.1 mm 1 mps 747 mmHg 76%
20:00 +17°C° 0.1 mm 0 mps 747 mmHg 81%
21:00 +16°C° 0 mm 0 mps 747 mmHg 83%
22:00 +15°C° 0 mm 0 mps 747 mmHg 85%
23:00 +14°C° 0 mm 0 mps 747 mmHg 87%

16 July, Thursday

Time Temperature Precipitation Wind Pressure Humidity
00:00 +13°C° 0 mm 0 mps 747 mmHg 88%
01:00 +14°C° 0 mm 1 mps 747 mmHg 89%
02:00 +14°C° 0 mm 1 mps 747 mmHg 90%
03:00 +14°C° 0 mm 1 mps 746 mmHg 90%
04:00 +14°C° 0 mm 1 mps 746 mmHg 91%
05:00 +13°C° 0 mm 1 mps 746 mmHg 91%
06:00 +15°C° 0 mm 1 mps 746 mmHg 88%
07:00 +18°C° 0 mm 1 mps 746 mmHg 84%
08:00 +19°C° 0 mm 2 mps 746 mmHg 80%
09:00 +20°C° 0 mm 2 mps 745 mmHg 74%
10:00 +23°C° 0 mm 2 mps 745 mmHg 68%
11:00 +24°C° 0 mm 2 mps 745 mmHg 62%
12:00 +24°C° 0.1 mm 2 mps 745 mmHg 61%
13:00 +25°C° 0.1 mm 3 mps 745 mmHg 61%
14:00 +25°C° 0.1 mm 3 mps 745 mmHg 61%
15:00 +24°C° 0.8 mm 3 mps 744 mmHg 66%
16:00 +22°C° 0.8 mm 3 mps 744 mmHg 72%
17:00 +23°C° 0.8 mm 2 mps 744 mmHg 78%
18:00 +20°C° 0.7 mm 2 mps 744 mmHg 84%
19:00 +18°C° 0.7 mm 2 mps 744 mmHg 90%
20:00 +16°C° 0.7 mm 2 mps 744 mmHg 96%
21:00 +16°C° 0.6 mm 2 mps 744 mmHg 97%
22:00 +16°C° 0.6 mm 2 mps 744 mmHg 97%
23:00 +16°C° 0.6 mm 1 mps 744 mmHg 98%

17 July, Friday

Time Temperature Precipitation Wind Pressure Humidity
00:00 +16°C° 0.3 mm 1 mps 744 mmHg 98%
01:00 +15°C° 0.3 mm 1 mps 744 mmHg 98%
02:00 +15°C° 0.3 mm 1 mps 744 mmHg 98%
03:00 +15°C° 0.5 mm 1 mps 744 mmHg 98%
04:00 +15°C° 0.5 mm 1 mps 744 mmHg 98%
05:00 +15°C° 0.5 mm 2 mps 744 mmHg 98%
06:00 +15°C° 2.1 mm 2 mps 744 mmHg 98%
07:00 +15°C° 2.1 mm 2 mps 744 mmHg 98%
08:00 +14°C° 2.1 mm 3 mps 744 mmHg 98%
09:00 +14°C° 4 mm 3 mps 744 mmHg 97%
10:00 +14°C° 4 mm 3 mps 744 mmHg 97%
11:00 +14°C° 4 mm 4 mps 744 mmHg 97%
12:00 +14°C° 0.9 mm 3 mps 744 mmHg 96%
13:00 +14°C° 0.9 mm 3 mps 744 mmHg 94%
14:00 +16°C° 0.9 mm 3 mps 744 mmHg 93%
15:00 +15°C° 0.3 mm 4 mps 744 mmHg 93%
16:00 +14°C° 0.3 mm 4 mps 744 mmHg 94%
17:00 +14°C° 0.3 mm 4 mps 744 mmHg 94%
18:00 +14°C° 0.3 mm 5 mps 744 mmHg 94%
19:00 +14°C° 0.3 mm 5 mps 744 mmHg 95%
20:00 +14°C° 0.3 mm 5 mps 744 mmHg 95%
21:00 +13°C° 0.2 mm 5 mps 745 mmHg 95%
22:00 +13°C° 0.2 mm 5 mps 745 mmHg 95%
23:00 +13°C° 0.2 mm 5 mps 745 mmHg 95%
Show more